Погода в Сидоровом

Россия / Республика Марий Эл     56°35′37″N   47°52′45″E
темп.,
°C
ветер,
м/с
пор.,
м/с
влажн.,
%
обл.,
%
осадки,
мм/ч
давл.,
гПа
погр.,
м
2 марта, вт
вт200:00−6юз61395100 0.9 1009572
03:00−3юз61396100 3.9 1005758
06:00−1юз61396100 1.9 1000696
09:000з51199100 2.8 998696
12:000з49100100 1.2 997682
15:00+1з4109799 1.7 998843
18:00−2з4119171 0.1 998467
21:00−4зсз3109253 0.1 999272
3 марта, ср
ср300:00−6з369671 0.0 999128
03:00−4з389680 0.1 1000371
06:00−4сз51095100 0.6 1000616
09:00−5сз51092100 0.8 1002652
12:00−4сз6990100 0.4 1003770
15:00−5сз5989100 0.5 1004822
18:00−6зсз4991100 0.1 1004761
21:00−7з31093100 0.2 1005363
4 марта, чт
чт400:00−8зюз499593 0.1 1002334
03:00−5з4119596 0.8 1001659
06:00−5зюз41094100 0.1 999534
09:00−3юз51194100 0.4 997736
12:00−1юз51097100 0.4 994786
15:000юз71499100 2.2 9921159
18:00−1зсз51285100 0.5 9921075
21:00−4з41191100 0.5 995479
5 марта, пт
пт500:00−9сз239696 0.0 99749
03:00−11с239598 0.0 99850
06:00−13с2394100 0.0 100044
09:00−11с259281 0.0 1002241
12:00−8сз249041 0.0 1004539
15:00−8сз368770 0.1 1006767
18:00−12сз2395100 0.1 100853
21:00−14зсз2297100 0.1 101120
6 марта, сб
сб600:00−16з229726 0.0 101320
03:00−17юз129719 0.0 101320
06:00−17ю239748 0.0 101322
09:00−12ю359571 0.1 1012248
12:00−8ююз3593100 0.3 1011534
15:00−6з3589100 0.6 1010737
18:00−11зсз389291 0.3 1010212
21:00−16зсз259788 0.3 101089